GW5527 Weather Reports


time (UTC)temp
F
wind
direction
speed
knots
gust
knots
rain 1hr
in
rain 24hr
in
rain mn
in
humidity
%
barometer
mb
20260502220302 65 174 2.6 2.6 0.00 0.00 0.00 28 973.2
20260502215759 65 246 5.2 6.1 0.00 0.00 0.00 28 972.9
20260502215257 65 261 3.5 4.3 0.00 0.00 0.00 28 973.2
20260502214753 65 276 1.7 1.7 0.00 0.00 0.00 29 973.2
20260502214250 65 228 4.3 5.2 0.00 0.00 0.00 29 973.2
20260502213748 65 306 4.3 4.3 0.00 0.00 0.00 28 973.2
20260502213245 65 258 3.5 3.5 0.00 0.00 0.00 29 973.2
20260502212744 66 262 5.2 6.1 0.00 0.00 0.00 28 973.6
20260502212242 65 218 3.5 3.5 0.00 0.00 0.00 28 973.6
20260502211737 66 318 1.7 1.7 0.00 0.00 0.00 26 973.6
20260502211234 65 305 3.5 4.3 0.00 0.00 0.00 31 973.6
20260502210731 66 316 5.2 5.2 0.00 0.00 0.00 28 973.6
20260502210229 65 258 3.5 3.5 0.00 0.00 0.00 31 973.9
20260502205726 64 275 5.2 6.1 0.00 0.00 0.00 29 973.9
20260502205222 66 234 3.5 4.3 0.00 0.00 0.00 29 973.9
20260502204719 65 138 5.2 5.2 0.00 0.00 0.00 28 974.3
20260502204217 64 194 2.6 2.6 0.00 0.00 0.00 27 973.9
20260502203714 64 252 5.2 5.2 0.00 0.00 0.00 28 974.3
20260502203212 65 269 3.5 3.5 0.00 0.00 0.00 29 974.3
20260502202706 65 296 3.5 4.3 0.00 0.00 0.00 28 974.6
20260502202204 65 324 5.2 6.1 0.00 0.00 0.00 28 974.3
20260502201702 64 200 7.0 7.0 0.00 0.00 0.00 27 974.3
20260502201158 64 352 7.0 7.0 0.00 0.00 0.00 27 974.6
20260502200653 64 234 1.7 1.7 0.00 0.00 0.00 28 974.6
20260502200150 63 186 5.2 5.2 0.00 0.00 0.00 27 974.6
20260502195648 63 234 6.1 6.1 0.00 0.00 0.00 29 974.9
20260502195144 63 234 5.2 5.2 0.00 0.00 0.00 28 974.9
20260502194641 63 264 1.7 1.7 0.00 0.00 0.00 32 974.6
20260502194138 62 234 7.0 7.0 0.00 0.00 0.00 29 974.9
20260502193634 62 233 5.2 6.1 0.00 0.00 0.00 27 974.9
20260502193131 61 12 0.0 0.0 0.00 0.00 0.00 28 975.3
20260502192627 62 243 5.2 5.2 0.00 0.00 0.00 28 974.9
20260502192125 63 260 5.2 6.1 0.00 0.00 0.00 27 975.3
20260502191621 62 262 1.7 1.7 0.00 0.00 0.00 26 975.3
20260502191119 62 121 1.7 1.7 0.00 0.00 0.00 27 975.3
20260502190616 62 222 1.7 1.7 0.00 0.00 0.00 27 975.6
20260502190114 62 233 1.7 1.7 0.00 0.00 0.00 27 975.6
20260502185608 61 252 1.7 1.7 0.00 0.00 0.00 28 975.6
20260502185105 61 276 1.7 1.7 0.00 0.00 0.00 30 976.0
20260502184601 60 212 4.3 4.3 0.00 0.00 0.00 29 975.6
20260502184057 61 198 4.3 5.2 0.00 0.00 0.00 30 976.0
20260502183554 60 173 7.0 7.8 0.00 0.00 0.00 29 976.0
20260502183050 60 256 1.7 1.7 0.00 0.00 0.00 29 976.0
20260502182545 60 270 4.3 5.2 0.00 0.00 0.00 32 976.3
20260502182041 60 246 4.3 4.3 0.00 0.00 0.00 34 976.6
20260502181539 60 240 1.7 1.7 0.00 0.00 0.00 30 976.3
20260502181038 60 276 3.5 3.5 0.00 0.00 0.00 31 976.6
20260502180535 59 216 5.2 5.2 0.00 0.00 0.00 31 976.3
20260502170453 56 222 3.5 4.3 0.00 0.00 0.00 31 977.3
20260502163937 56 277 1.7 1.7 0.00 0.00 0.00 32 977.6
20260502163433 55 228 3.5 4.3 0.00 0.00 0.00 36 977.6
20260502162931 55 290 5.2 5.2 0.00 0.00 0.00 36 977.6
20260502162427 56 256 1.7 1.7 0.00 0.00 0.00 35 978.0
20260502161924 55 169 4.3 4.3 0.00 0.00 0.00 34 978.0
20260502161420 55 234 6.1 6.1 0.00 0.00 0.00 34 977.6
20260502160919 55 210 1.7 1.7 0.00 0.00 0.00 32 978.0
20260502160416 55 285 5.2 6.1 0.00 0.00 0.00 32 977.6
20260502151849 54 316 3.5 3.5 0.00 0.00 0.00 34 978.3
20260502151345 53 211 3.5 3.5 0.00 0.00 0.00 35 978.0
20260502150843 53 240 3.5 3.5 0.00 0.00 0.00 39 978.3
20260502150339 52 234 3.5 3.5 0.00 0.00 0.00 40 978.7
20260502130727 41 228 3.5 3.5 0.00 0.00 0.00 64 978.7
20260502130225 41 246 1.7 1.7 0.00 0.00 0.00 66 978.7
20260502123711 37 228 1.7 1.7 0.00 0.00 0.00 72 978.7
20260502123208 37 228 1.7 1.7 0.00 0.00 0.00 72 978.7
20260502122704 37 233 3.5 3.5 0.00 0.00 0.00 71 978.7
20260502122201 37 244 1.7 1.7 0.00 0.00 0.00 70 978.3
20260502121659 36 234 1.7 1.7 0.00 0.00 0.00 71 978.7
20260502121156 35 234 1.7 1.7 0.00 0.00 0.00 72 978.7
20260502120653 35 234 1.7 1.7 0.00 0.00 0.00 73 978.3
20260502120150 35 234 1.7 1.7 0.00 0.00 0.00 73 978.3
20260502115647 35 234 1.7 1.7 0.00 0.00 0.00 73 978.3
20260502115143 34 234 1.7 1.7 0.00 0.00 0.00 73 978.7
20260502114639 34 234 1.7 1.7 0.00 0.00 0.00 74 978.3
20260502114137 34 240 1.7 1.7 0.00 0.00 0.00 75 978.7
20260502113634 33 240 1.7 1.7 0.00 0.00 0.00 76 978.3
20260502113132 33 240 1.7 1.7 0.00 0.00 0.00 76 978.7
20260502112630 33 240 1.7 1.7 0.00 0.00 0.00 76 978.0
20260502112127 33 240 1.7 1.7 0.00 0.00 0.00 76 978.0
20260502111625 33 240 1.7 1.7 0.00 0.00 0.00 77 978.0
20260502111122 33 240 1.7 1.7 0.00 0.00 0.00 77 978.3
20260502110620 33 240 1.7 1.7 0.00 0.00 0.00 77 978.3
20260502110117 33 240 1.7 1.7 0.00 0.00 0.00 77 978.3
20260502105614 33 240 1.7 1.7 0.00 0.00 0.00 77 978.3
20260502105111 33 240 1.7 1.7 0.00 0.00 0.00 76 978.3
20260502104608 33 240 1.7 1.7 0.00 0.00 0.00 76 978.3
20260502104106 34 240 1.7 1.7 0.00 0.00 0.00 76 978.3
20260502103603 34 244 1.7 1.7 0.00 0.00 0.00 76 978.3
20260502103101 34 244 1.7 1.7 0.00 0.00 0.00 75 978.0
20260502102557 34 244 1.7 1.7 0.00 0.00 0.00 75 978.3
20260502102054 34 244 1.7 1.7 0.00 0.00 0.00 75 978.3
20260502101552 34 244 1.7 1.7 0.00 0.00 0.00 75 978.0
20260502101050 35 246 1.7 1.7 0.00 0.00 0.00 73 978.0
20260502100549 34 246 1.7 1.7 0.00 0.00 0.00 74 978.3
20260502091523 35 270 0.0 0.0 0.00 0.00 0.00 71 978.3
20260502091021 35 270 0.0 0.0 0.00 0.00 0.00 71 978.3
20260502090517 35 270 0.0 0.0 0.00 0.00 0.00 71 978.0
20260502071412 37 0 0.0 0.0 0.00 0.00 0.00 65 978.3
20260502070910 37 0 0.0 0.0 0.00 0.00 0.00 66 978.3
20260502070408 37 0 0.0 0.0 0.00 0.00 0.00 66 978.3
20260502065906 37 0 0.0 0.0 0.00 0.00 0.00 66 978.3
20260502065404 37 0 0.0 0.0 0.00 0.00 0.00 65 978.3
20260502064902 37 0 0.0 0.0 0.00 0.00 0.00 66 978.7
20260502064400 37 0 0.0 0.0 0.00 0.00 0.00 66 978.7
20260502063856 37 0 0.0 0.0 0.00 0.00 0.00 65 978.7
20260502063354 37 0 0.0 0.0 0.00 0.00 0.00 65 978.7
20260502062851 37 0 0.0 0.0 0.00 0.00 0.00 64 978.7
20260502062348 37 0 0.0 0.0 0.00 0.00 0.00 65 978.7
20260502061847 38 0 0.0 0.0 0.00 0.00 0.00 63 978.7
20260502061345 38 0 0.0 0.0 0.00 0.00 0.00 62 978.3
20260502060841 38 0 0.0 0.0 0.00 0.00 0.00 62 978.7
20260502060336 38 0 0.0 0.0 0.00 0.00 0.00 62 978.3
20260502055834 38 0 0.0 0.0 0.00 0.00 0.00 62 978.7
20260502055331 38 0 0.0 0.0 0.00 0.00 0.00 61 978.3
20260502054831 38 0 0.0 0.0 0.00 0.00 0.00 62 978.7
20260502054328 39 0 0.0 0.0 0.00 0.00 0.00 59 978.3
20260502053825 39 0 0.0 0.0 0.00 0.00 0.00 60 978.3
20260502053322 39 0 0.0 0.0 0.00 0.00 0.00 60 978.3
20260502052820 39 0 0.0 0.0 0.00 0.00 0.00 60 978.3
20260502052318 39 0 0.0 0.0 0.00 0.00 0.00 59 978.3
20260502051815 39 0 0.0 0.0 0.00 0.00 0.00 60 978.3
20260502051314 39 0 0.0 0.0 0.00 0.00 0.00 59 978.3
20260502050810 39 0 0.0 0.0 0.00 0.00 0.00 59 978.3
20260502050306 39 0 0.0 0.0 0.00 0.00 0.00 60 978.3
20260502045804 39 0 0.0 0.0 0.00 0.00 0.00 59 978.0
20260502045300 40 0 0.0 0.0 0.00 0.00 0.00 59 978.0
20260502044757 40 0 0.0 0.0 0.00 0.00 0.00 58 978.3
20260502044253 40 0 1.7 1.7 0.00 0.00 0.00 59 978.0
20260502043751 40 0 0.0 0.0 0.00 0.00 0.00 57 978.3
20260502043248 40 0 0.0 0.0 0.00 0.00 0.00 55 978.3
20260502042747 40 0 0.0 0.0 0.00 0.00 0.00 57 978.0
20260502042245 40 0 0.0 0.0 0.00 0.00 0.00 56 978.3
20260502041743 40 0 0.0 0.0 0.00 0.00 0.00 57 978.0
20260502041240 40 0 0.0 0.0 0.00 0.00 0.00 59 978.3
20260502040736 40 0 0.0 0.0 0.00 0.00 0.00 57 978.3
20260502040233 40 0 0.0 0.0 0.00 0.00 0.00 57 978.0
20260502035729 40 0 0.0 0.0 0.00 0.00 0.00 57 978.3
20260502035226 40 0 0.0 0.0 0.00 0.00 0.00 59 978.0
20260502034724 40 0 0.0 0.0 0.00 0.00 0.00 59 978.3
20260502034222 40 0 0.0 0.0 0.00 0.00 0.00 59 978.3
20260502033720 41 0 0.0 0.0 0.00 0.00 0.00 58 978.3
20260502033217 41 0 0.0 0.0 0.00 0.00 0.00 56 978.0
20260502032714 41 0 0.0 0.0 0.00 0.00 0.00 57 978.3
20260502032209 41 0 0.0 0.0 0.00 0.00 0.00 57 978.3
20260502031708 41 0 0.0 0.0 0.00 0.00 0.00 57 978.0
20260502031205 41 0 0.0 0.0 0.00 0.00 0.00 58 978.0
20260502030704 41 0 0.0 0.0 0.00 0.00 0.00 57 978.0
20260502030202 41 0 0.0 0.0 0.00 0.00 0.00 56 978.3
20260502025658 42 0 0.0 0.0 0.00 0.00 0.00 56 978.0
20260502025156 42 0 0.0 0.0 0.00 0.00 0.00 56 978.0
20260502024654 42 0 0.0 0.0 0.00 0.00 0.00 55 978.0
20260502024152 43 0 0.0 0.0 0.00 0.00 0.00 53 978.0
20260502023650 43 316 0.0 0.0 0.00 0.00 0.00 53 978.3
20260502023147 44 300 0.0 0.0 0.00 0.00 0.00 51 978.0
20260502022644 44 323 1.7 1.7 0.00 0.00 0.00 50 978.0
20260502022141 45 354 0.0 0.0 0.00 0.00 0.00 49 978.0
20260502021638 45 354 0.0 0.0 0.00 0.00 0.00 49 977.6
20260502021135 45 24 0.0 0.0 0.00 0.00 0.00 48 978.0
20260502020632 45 18 0.0 0.0 0.00 0.00 0.00 48 977.6
20260502020129 46 18 1.7 1.7 0.00 0.00 0.00 47 978.0
20260502015627 46 6 0.0 0.0 0.00 0.00 0.00 47 977.6
20260502015123 46 6 1.7 1.7 0.00 0.00 0.00 46 977.6
20260502014620 46 336 1.7 1.7 0.00 0.00 0.00 46 977.3
20260502014118 47 317 1.7 1.7 0.00 0.00 0.00 44 977.3
20260502013613 47 12 1.7 1.7 0.00 0.00 0.00 43 977.3
20260502013109 47 306 1.7 1.7 0.00 0.00 0.00 44 977.3
20260502012607 47 317 3.5 4.3 0.00 0.00 0.00 43 977.3
20260502012105 48 348 3.5 3.5 0.00 0.00 0.00 42 977.3
20260502011601 48 330 1.7 1.7 0.00 0.00 0.00 43 977.3
20260502011057 49 316 3.5 3.5 0.00 0.00 0.00 41 977.3
20260502010555 49 30 3.5 4.3 0.00 0.00 0.00 42 977.0
20260502010051 49 102 1.7 1.7 0.00 0.00 0.00 41 977.0
20260502005549 50 12 2.6 2.6 0.00 0.00 0.00 39 977.0
20260502005046 50 42 3.5 3.5 0.00 0.00 0.00 39 977.0
20260502004542 50 30 3.5 3.5 0.00 0.00 0.00 38 977.0
20260502004039 50 346 3.5 4.3 0.00 0.00 0.00 38 977.0
20260502003537 50 300 3.5 3.5 0.00 0.00 0.00 37 977.0
20260502003033 50 328 7.0 7.0 0.00 0.00 0.00 36 977.0
20260502002530 51 30 7.8 7.8 0.00 0.00 0.00 36 976.6
20260502002027 51 354 5.2 5.2 0.00 0.00 0.00 36 977.0
20260502001525 51 312 5.2 6.1 0.00 0.00 0.00 36 976.6
20260502001022 51 12 3.5 3.5 0.00 0.00 0.00 37 977.0
20260502000520 51 24 7.0 7.0 0.00 0.00 0.00 36 976.6
20260502000017 51 300 7.8 7.8 0.00 0.00 0.00 36 976.6
20260501235513 51 24 3.5 3.5 0.00 0.00 0.00 36 976.6
20260501235008 51 6 7.8 7.8 0.00 0.00 0.00 35 976.6
20260501234504 51 318 7.8 7.8 0.00 0.00 0.00 35 976.6
20260501234003 52 36 1.7 1.7 0.00 0.00 0.00 35 976.6
20260501233500 52 6 7.0 7.0 0.00 0.00 0.00 34 976.3
20260501232956 52 13 7.0 7.0 0.00 0.00 0.00 36 976.6
20260501232453 52 60 4.3 4.3 0.00 0.00 0.00 34 976.6
20260501231950 52 54 5.2 6.1 0.00 0.00 0.00 35 976.6
20260501231449 51 66 3.5 4.3 0.00 0.00 0.00 36 976.6
20260501230946 51 354 5.2 6.1 0.00 0.00 0.00 37 976.3
20260501230445 51 228 4.3 4.3 0.00 0.00 0.00 36 976.3
20260501225942 51 66 1.7 1.7 0.00 0.00 0.00 36 976.3
20260501225440 51 102 3.5 4.3 0.00 0.00 0.00 36 976.3
20260501224935 51 312 10.4 11.3 0.00 0.00 0.00 36 976.6
20260501224433 51 12 4.3 4.3 0.00 0.00 0.00 36 976.6
20260501223930 51 0 5.2 5.2 0.00 0.00 0.00 35 976.6
20260501223426 51 330 5.2 6.1 0.00 0.00 0.00 36 976.3
20260501222922 51 18 2.6 2.6 0.00 0.00 0.00 36 976.6
20260501222419 51 90 2.6 2.6 0.00 0.00 0.00 37 976.6
20260501221915 51 6 5.2 6.1 0.00 0.00 0.00 36 976.3
20260501221413 51 324 5.2 5.2 0.00 0.00 0.00 36 976.6
20260501220911 52 72 4.3 5.2 0.00 0.00 0.00 36 976.3